Simultaneous Nadir Overpasses (SNOs) Predictions

Prediction of SNOs between METOP-A and NOAA-19 Satellite Orbit:

Table of predicted SNOs for the next 14.0 days since TLE Epoch: 7/19/2019
Index Date (METOP-A) Time (METOP-A) Lat,Lon (METOP-A) SZA (METOP-A ) Date (NOAA-19) Time (NOAA-19) Lat,Lon (NOAA-19) SZA (NOAA-19 ) Distance(km) Time Diff (sec)
1 07/30/2019 01:53:16 79.84, 164.15 61.38 07/30/2019 01:52:10 79.82, 164.17 61.35 2.26 66
2 07/30/2019 02:43:58 -79.82, -28.69 118.64 07/30/2019 02:43:10 -79.82, -28.59 118.65 1.97 48
3 07/30/2019 03:34:38 79.83, 138.70 61.38 07/30/2019 03:34:11 79.83, 138.61 61.37 1.89 27
4 07/30/2019 04:25:20 -79.81, -54.14 118.64 07/30/2019 04:25:11 -79.83, -54.15 118.63 1.86 9
5 07/30/2019 05:16:00 79.82, 113.25 61.38 07/30/2019 05:16:11 79.81, 113.35 61.37 2.28 11
6 07/30/2019 06:06:41 -79.83, -79.30 118.60 07/30/2019 06:07:11 -79.81, -79.41 118.62 3.39 30
7 07/30/2019 06:57:22 79.80, 87.80 61.38 07/30/2019 06:58:12 79.81, 87.79 61.39 0.75 50




NCC Satellite Simultaneous Nadir Overpasses (SNOs) Prediction Service
